Mackinac Island, MI

4:54 AM EST on January 17, 2018 (GMT -0500)
Mackinac Island

Weather History for KMCD - April, 2012

Change the Weather History Date:

Tuesday, April 10, 2012

  Actual Average Record
Temperature  
Mean Temperature 35 °F -  
Max Temperature 38 °F 43 °F 58 °F (1987)
Min Temperature 32 °F 28 °F 12 °F (1989)
Degree Days  
Heating Degree Days 30    
Moisture  
Dew Point 28 °F    
Average Humidity 75    
Maximum Humidity 90    
Minimum Humidity 62    
Precipitation  
Precipitation 0.00 in - - ()
Sea Level Pressure  
Sea Level Pressure 29.87 in    
Wind  
Wind Speed 12 mph (NW)    
Max Wind Speed 17 mph    
Max Gust Speed 25 mph    
Visibility 10 miles    
Events      
Averages and records for this station are not official NWS values.
T = Trace of Precipitation, MM = Missing Value Source: NWS Daily Summary

Daily Weather History Graph

Daily Weather History Graph

Search for Another Location

Airport or City:

Trip Planner

Search our weather history database for the weather conditions in past years. The results will help you decide how hot, cold, wet, or windy it might be!

Date:

Astronomy

Apr. 10, 2012 Rise Set
Actual Time 7:00 AM EDT 8:19 PM EDT
Civil Twilight 6:29 AM EDT 8:50 PM EDT
Nautical Twilight 5:52 AM EDT 9:27 PM EDT
Astronomical Twilight 5:13 AM EDT 10:07 PM EDT
Moon 12:25 AM EDT (4/10) 9:31 AM EDT (4/10)
Length of Visible Light 14h 20m
Length of Day
13h 18m
Waning Gibbous, 79% of the Moon is Illuminated
Apr 10
Waning Gibbous
Apr 13
Last Quarter
Apr 21
New
Apr 29
First Quarter
May 5
Full

Hourly Weather History & Observations

Time (EDT) Temp. Windchill Dew Point Humidity Pressure Visibility Wind Dir Wind Speed Gust Speed Precip Events Conditions
12:12 AM 34.3 °F 27.7 °F 29.5 °F 82% 29.84 in 10.0 mi NW 8.1 mph - N/A   Mostly Cloudy
12:32 AM 34.7 °F 27.5 °F 29.1 °F 80% 29.83 in 10.0 mi NW 9.2 mph - N/A   Overcast
12:52 AM 34.9 °F 27.1 °F 28.9 °F 79% 29.83 in 10.0 mi NW 10.4 mph 17.3 mph N/A   Overcast
1:12 AM 34.9 °F 27.7 °F 28.4 °F 77% 29.82 in 10.0 mi NW 9.2 mph 17.3 mph N/A   Overcast
1:33 AM 34.7 °F 25.5 °F 28.4 °F 78% 29.82 in 10.0 mi NW 13.8 mph 19.6 mph N/A   Overcast
1:52 AM 34.7 °F 25.9 °F 28.4 °F 78% 29.82 in 10.0 mi NW 12.7 mph 20.7 mph N/A   Overcast
2:12 AM 34.7 °F 26.4 °F 28.8 °F 79% 29.81 in 10.0 mi NW 11.5 mph 18.4 mph N/A   Overcast
2:32 AM 34.3 °F 25.9 °F 28.9 °F 81% 29.81 in 10.0 mi NW 11.5 mph 19.6 mph N/A   Scattered Clouds
2:52 AM 34.3 °F 26.5 °F 28.9 °F 81% 29.80 in 10.0 mi NW 10.4 mph 16.1 mph N/A   Clear
3:13 AM 34.3 °F 25.9 °F 28.9 °F 81% 29.80 in 10.0 mi NW 11.5 mph 17.3 mph N/A   Clear
3:32 AM 34.2 °F 25.7 °F 28.8 °F 81% 29.80 in 10.0 mi NNW 11.5 mph 17.3 mph N/A   Clear
3:53 AM 34.0 °F 27.2 °F 28.4 °F 80% 29.80 in 10.0 mi NNW 8.1 mph - N/A   Clear
4:12 AM 34.2 °F 25.7 °F 28.0 °F 78% 29.79 in 10.0 mi NNW 11.5 mph 18.4 mph N/A   Clear
4:32 AM 34.0 °F 25.5 °F 27.3 °F 77% 29.79 in 10.0 mi NNW 11.5 mph 20.7 mph N/A   Clear
4:52 AM 33.8 °F 24.8 °F 26.6 °F 75% 29.80 in 10.0 mi NNW 12.7 mph 19.6 mph N/A   Clear
5:12 AM 33.4 °F 24.8 °F 26.8 °F 77% 29.80 in 10.0 mi NNW 11.5 mph 18.4 mph N/A   Clear
5:33 AM 33.3 °F 23.7 °F 26.6 °F 77% 29.80 in 10.0 mi NNW 13.8 mph 19.6 mph N/A   Clear
5:52 AM 32.9 °F 24.7 °F 26.2 °F 76% 29.80 in 10.0 mi NNW 10.4 mph 20.7 mph N/A   Clear
6:12 AM 32.9 °F 23.7 °F 25.9 °F 75% 29.80 in 10.0 mi NW 12.7 mph 20.7 mph N/A   Clear
6:32 AM 32.9 °F 22.8 °F 26.4 °F 77% 29.81 in 10.0 mi NNW 15.0 mph 24.2 mph N/A   Clear
6:52 AM 32.5 °F 22.3 °F 26.4 °F 78% 29.81 in 10.0 mi NNW 15.0 mph 24.2 mph N/A   Clear
7:12 AM 32.7 °F 22.5 °F 26.2 °F 77% 29.81 in 10.0 mi NNW 15.0 mph 21.9 mph N/A   Clear
7:32 AM 32.9 °F 22.4 °F 26.6 °F 78% 29.82 in 10.0 mi NNW 16.1 mph 25.3 mph N/A   Clear
7:52 AM 32.9 °F 23.7 °F 27.0 °F 79% 29.82 in 10.0 mi NNW 12.7 mph 20.7 mph N/A   Clear
8:12 AM 33.1 °F 23.4 °F 27.1 °F 79% 29.82 in 10.0 mi NNW 13.8 mph 20.7 mph N/A   Clear
8:32 AM 33.4 °F 24.3 °F 27.3 °F 78% 29.83 in 10.0 mi NNW 12.7 mph 23.0 mph N/A   Scattered Clouds
8:52 AM 34.7 °F 25.5 °F 27.5 °F 75% 29.83 in 10.0 mi NNW 13.8 mph 20.7 mph N/A   Mostly Cloudy
9:12 AM 35.2 °F 26.6 °F 27.5 °F 73% 29.83 in 10.0 mi NNW 12.7 mph 24.2 mph N/A   Scattered Clouds
9:32 AM 34.7 °F 24.7 °F 27.1 °F 74% 29.83 in 10.0 mi NNW 16.1 mph 23.0 mph N/A   Mostly Cloudy
9:53 AM 34.9 °F 24.9 °F 26.6 °F 72% 29.84 in 10.0 mi NW 16.1 mph 23.0 mph N/A   Overcast
10:12 AM 35.1 °F 26.4 °F 26.4 °F 71% 29.84 in 10.0 mi NW 12.7 mph 21.9 mph N/A   Overcast
10:32 AM 35.8 °F 26.1 °F 27.0 °F 70% 29.84 in 10.0 mi NNW 16.1 mph 20.7 mph N/A   Overcast
10:52 AM 36.3 °F 28.0 °F 26.4 °F 67% 29.84 in 10.0 mi NW 12.7 mph 25.3 mph N/A   Overcast
11:12 AM 36.7 °F 29.4 °F 26.2 °F 66% 29.85 in 10.0 mi NW 10.4 mph 25.3 mph N/A   Overcast
11:32 AM 37.0 °F 28.1 °F 26.1 °F 65% 29.85 in 10.0 mi NW 15.0 mph 23.0 mph N/A   Overcast
11:53 AM 37.9 °F 30.5 °F 26.1 °F 62% 29.85 in 10.0 mi NNW 11.5 mph 21.9 mph N/A   Overcast
12:12 PM 37.4 °F 28.5 °F 26.1 °F 64% 29.85 in 10.0 mi NNW 15.0 mph 21.9 mph N/A   Overcast
12:32 PM 37.4 °F 28.2 °F 26.2 °F 64% 29.85 in 10.0 mi NW 16.1 mph 25.3 mph N/A   Overcast
12:52 PM 38.1 °F 29.5 °F 26.8 °F 64% 29.84 in 10.0 mi NW 15.0 mph 25.3 mph N/A   Overcast
1:12 PM 37.9 °F 29.2 °F 27.1 °F 65% 29.85 in 10.0 mi NW 15.0 mph 24.2 mph N/A   Overcast
1:33 PM 37.0 °F 28.1 °F 28.9 °F 73% 29.85 in 10.0 mi NW 15.0 mph 19.6 mph N/A   Overcast
1:52 PM 37.6 °F 30.5 °F 28.2 °F 69% 29.85 in 10.0 mi NW 10.4 mph 18.4 mph N/A   Overcast
2:32 PM 37.8 °F 29.0 °F 28.2 °F 68% 29.85 in 10.0 mi NNW 15.0 mph 20.7 mph N/A   Overcast
3:12 PM 37.2 °F 27.6 °F 28.9 °F 72% 29.86 in 10.0 mi NW 17.3 mph 24.2 mph N/A   Overcast
3:32 PM 37.8 °F 30.2 °F 28.0 °F 68% 29.86 in 10.0 mi NNW 11.5 mph 21.9 mph N/A   Overcast
3:52 PM 37.4 °F 28.9 °F 28.8 °F 71% 29.87 in 10.0 mi NW 13.8 mph 23.0 mph N/A   Overcast
4:12 PM 37.9 °F 28.5 °F 28.8 °F 70% 29.87 in 10.0 mi NNW 17.3 mph 24.2 mph N/A   Overcast
4:32 PM 36.1 °F 27.3 °F 29.3 °F 76% 29.88 in 10.0 mi NW 13.8 mph 24.2 mph N/A   Overcast
4:52 PM 36.5 °F 27.8 °F 28.9 °F 74% 29.88 in 10.0 mi NW 13.8 mph 20.7 mph N/A   Overcast
5:12 PM 37.2 °F 27.9 °F 28.2 °F 70% 29.89 in 10.0 mi NW 16.1 mph 21.9 mph N/A   Overcast
5:32 PM 37.2 °F 29.1 °F 27.5 °F 68% 29.90 in 10.0 mi NNW 12.7 mph 24.2 mph N/A   Overcast
6:12 PM 38.3 °F 30.5 °F 27.5 °F 65% 29.92 in 10.0 mi NNW 12.7 mph 20.7 mph N/A   Overcast
6:32 PM 37.4 °F 29.3 °F 28.0 °F 69% 29.92 in 10.0 mi NNW 12.7 mph 20.7 mph N/A   Overcast
6:52 PM 36.7 °F 29.4 °F 28.8 °F 73% 29.93 in 10.0 mi NNW 10.4 mph 17.3 mph N/A   Overcast
7:12 PM 36.3 °F 28.0 °F 29.1 °F 75% 29.94 in 10.0 mi NNW 12.7 mph 18.4 mph N/A   Overcast
7:32 PM 36.0 °F 29.6 °F 29.3 °F 77% 29.94 in 10.0 mi NNW 8.1 mph 17.3 mph N/A   Overcast
7:53 PM 36.0 °F 27.5 °F 28.8 °F 75% 29.95 in 10.0 mi NNW 12.7 mph 16.1 mph N/A   Overcast
8:12 PM 35.8 °F 29.4 °F 28.4 °F 75% 29.95 in 10.0 mi NNW 8.1 mph 17.3 mph N/A   Overcast
8:32 PM 36.0 °F 28.0 °F 28.8 °F 75% 29.96 in 10.0 mi NW 11.5 mph - N/A   Overcast
8:52 PM 36.0 °F 28.0 °F 28.4 °F 74% 29.96 in 10.0 mi NNW 11.5 mph 18.4 mph N/A   Overcast
9:12 PM 36.0 °F 27.5 °F 28.9 °F 76% 29.97 in 10.0 mi NNW 12.7 mph 19.6 mph N/A   Overcast
9:32 PM 35.8 °F 27.8 °F 29.3 °F 77% 29.97 in 10.0 mi NNW 11.5 mph 19.6 mph N/A   Overcast
9:52 PM 35.6 °F 27.1 °F 29.7 °F 79% 29.98 in 10.0 mi NNW 12.7 mph 18.4 mph N/A   Overcast
10:12 PM 35.4 °F 27.8 °F 30.0 °F 81% 29.98 in 10.0 mi NNW 10.4 mph 16.1 mph N/A   Overcast
10:32 PM 34.7 °F 26.9 °F 30.2 °F 84% 29.99 in 10.0 mi NNW 10.4 mph 18.4 mph N/A   Mostly Cloudy
10:52 PM 34.3 °F 27.7 °F 30.7 °F 87% 29.99 in 10.0 mi NNW 8.1 mph - N/A   Scattered Clouds
11:12 PM 34.0 °F 27.2 °F 30.9 °F 89% 29.99 in 10.0 mi NNW 8.1 mph - N/A   Clear
11:32 PM 33.8 °F 27.7 °F 31.1 °F 90% 30.00 in 10.0 mi NNW 6.9 mph - N/A   Mostly Cloudy
11:53 PM 34.2 °F 28.2 °F 31.5 °F 90% 30.00 in 10.0 mi NNW 6.9 mph - N/A   Overcast